ジャクソン-ニェウイミン彗星

58P/Jackson-Neujmin (2020)

English version
Home page
Updated on April 4, 2021

---------------------------------------------------------------------

・ プロフィール

・ 写真集

・ 軌道要素

Epoch 2020 May 31.0 TT = JDT 2459000.5
T 2020 May 27.43955 TT                                  Rudenko
q   1.3774662            (2000.0)            P               Q
n   0.11948177     Peri.  200.45050     +0.99671728     -0.00057382
a   4.0825824      Node   159.08307     +0.01624712     +0.98105019
e   0.6625993      Incl.   13.10679     -0.07931392     +0.19375291
P   8.25
From 501 observations 1970 Oct. 1-2020 Nov. 23, mean residual 0".9.
     Nongravitational parameters A1 = +0.09, A2 = +0.1398.

・ 星図

・ 光度変化

        m1 = 4.0 + 5 logΔ + 35 log r(t + 15)

---------------------------------------------------------------------

軌道要素はM.P.E.C. 2021-F20に掲載されたものです。
星図はステラナビゲータ Ver.8 (アストロアーツ) で作成したものです。
光度グラフはComet for Windowsで作成したものです。

---------------------------------------------------------------------

Copyright(C) Seiichi Yoshida (comet@aerith.net). All rights reserved.